Tracking 19796 objects as of 19-Jul-2019
HD Live streaming from Space Station
objects crossing your sky now

TIANGE 2


TIANGE 2 is no longer on orbit


NORAD ID: 41637
Int'l Code: 2016-042M
Perigee: N/A
Apogee: N/A
Inclination: N/A
Period: N/A
Semi major axis: N/A
RCS: N/A
Launch date: June 25, 2016
Source: People's Republic of China (PRC)
Launch site: Wenchang Satellite Launch Center (WSC)
Decay date: 2016-08-24
aabbcc
Your satellite tracking list
Your tracking list is empty




NASA's NSSDC Master Catalog

Two Line Element Set (TLE):
1 41637U 16042M   16236.82200819 +.02456820 +75922-5 +28448-3 0  9998
2 41637 040.8268 021.2557 0006401 025.7522 334.3166 16.35677227009367
Source of the keplerian elements: AFSPC